Seatac, WA

6:22 AM PDT on September 30, 2016 (GMT -0700)
Seattle-Tacoma International

Weather History for KSEA - October, 2006

Change the Weather History Date:

Sunday, October 15, 2006

  Actual Average Record
Temperature  
Mean Temperature 52 °F 53 °F  
Max Temperature 55 °F 60 °F 77 °F (1991)
Min Temperature 49 °F 46 °F 35 °F (1952)
Degree Days  
Heating Degree Days 13 12  
Month to date heating degree days 146 151  
Since 1 July heating degree days 320 368  
Cooling Degree Days 0 0  
Month to date cooling degree days 0 0  
Year to date cooling degree days 270 189  
Growing Degree Days 1 (Base 50)    
Moisture  
Dew Point 49 °F    
Average Humidity 92    
Maximum Humidity 100    
Minimum Humidity 83    
Precipitation  
Precipitation 0.43 in 0.10 in 0.93 in (1951)
Month to date precipitation 0.49 1.28  
Year to date precipitation 24.43 23.37  
Snow  
Snow 0.00 in - - ()
Month to date snowfall  
Since 1 July snowfall  
Snow Depth -    
Sea Level Pressure  
Sea Level Pressure 29.64 in    
Wind  
Wind Speed 10 mph (South)    
Max Wind Speed 21 mph    
Max Gust Speed 25 mph    
Visibility 7 miles    
Events Rain    
T = Trace of Precipitation, MM = Missing Value Source: NWS Daily Summary

Daily Weather History Graph

Daily Weather History Graph

Search for Another Location

Airport or City:

Trip Planner

Search our weather history database for the weather conditions in past years. The results will help you decide how hot, cold, wet, or windy it might be!

Date:

Astronomy

Oct. 15, 2006 Rise Set
Actual Time 7:27 AM PDT 6:21 PM PDT
Civil Twilight 6:56 AM PDT 6:52 PM PDT
Nautical Twilight 6:21 AM PDT 7:27 PM PDT
Astronomical Twilight 5:45 AM PDT 8:03 PM PDT
Moon 12:28 AM PDT (10/15) 4:16 PM PDT (10/15)
Length of Visible Light 11h 55m
Length of Day
10h 53m
Waning Crescent, 33% of the Moon is Illuminated
Oct 15
Waning Crescent
Oct 21
New
Oct 29
First Quarter
Nov 5
Full
Nov 12
Last Quarter

Hourly Weather History & Observations

Time (PDT) Temp. Dew Point Humidity Pressure Visibility Wind Dir Wind Speed Gust Speed Precip Events Conditions
12:53 AM 48.9 °F 48.0 °F 97% 29.82 in 10.0 mi South 6.9 mph - 0.00 in Rain Light Rain
1:16 AM 48.2 °F 48.2 °F 100% 29.79 in 7.0 mi South 8.1 mph - 0.01 in Rain Light Rain
1:53 AM 48.9 °F 48.0 °F 97% 29.79 in 8.0 mi SSE 11.5 mph - 0.02 in Rain Light Rain
2:53 AM 48.9 °F 48.0 °F 97% 29.78 in 6.0 mi SSE 6.9 mph - 0.01 in Rain Light Rain
3:21 AM 48.2 °F 48.2 °F 100% 29.74 in 7.0 mi SE 10.4 mph - 0.02 in   Overcast
3:53 AM 48.9 °F 48.0 °F 97% 29.75 in 7.0 mi SSE 4.6 mph - 0.02 in   Overcast
4:53 AM 48.9 °F 48.9 °F 100% 29.73 in 3.0 mi SW 8.1 mph - 0.00 in Rain Light Rain
5:53 AM 48.9 °F 48.0 °F 97% 29.72 in 10.0 mi SSW 6.9 mph - 0.00 in   Overcast
6:35 AM 50.0 °F 48.2 °F 94% 29.69 in 10.0 mi South 6.9 mph - N/A   Overcast
6:53 AM 48.9 °F 48.0 °F 97% 29.71 in 10.0 mi South 5.8 mph - N/A   Overcast
7:53 AM 50.0 °F 48.0 °F 93% 29.69 in 5.0 mi South 8.1 mph - 0.01 in Rain Light Rain
8:12 AM 50.0 °F 48.2 °F 94% 29.67 in 4.0 mi South 5.8 mph - 0.03 in Rain Rain
8:53 AM 50.0 °F 48.0 °F 93% 29.69 in 4.0 mi South 8.1 mph - 0.09 in Rain Light Rain
9:25 AM 50.0 °F 48.2 °F 94% 29.66 in 4.0 mi SE 9.2 mph - 0.03 in Rain Light Rain
9:45 AM 50.0 °F 48.2 °F 94% 29.65 in 4.0 mi SE 9.2 mph - 0.04 in Rain Light Rain
9:53 AM 50.0 °F 48.9 °F 96% 29.67 in 4.0 mi SE 8.1 mph - 0.05 in Rain Light Rain
10:53 AM 51.1 °F 48.9 °F 92% 29.64 in 3.0 mi SE 9.2 mph - 0.03 in Rain Light Rain
11:32 AM 50.0 °F 48.2 °F 94% 29.60 in 2.5 mi SSE 6.9 mph - 0.06 in Rain Rain
11:53 AM 50.0 °F 48.9 °F 96% 29.62 in 2.5 mi South 4.6 mph - 0.12 in Rain Rain
12:05 PM 50.0 °F 50.0 °F 100% 29.60 in 3.0 mi SSW 4.6 mph - 0.02 in Rain Rain
12:53 PM 52.0 °F 50.0 °F 93% 29.59 in 6.0 mi SE 10.4 mph - 0.08 in Rain Light Rain
1:53 PM 53.1 °F 51.1 °F 93% 29.57 in 7.0 mi South 8.1 mph - N/A   Overcast
2:42 PM 53.6 °F 51.8 °F 94% 29.54 in 7.0 mi SSW 8.1 mph - N/A   Overcast
2:53 PM 53.1 °F 51.1 °F 93% 29.55 in 7.0 mi South 10.4 mph - N/A   Overcast
3:09 PM 53.6 °F 51.8 °F 94% 29.52 in 7.0 mi South 9.2 mph - N/A   Overcast
3:53 PM 54.0 °F 51.1 °F 90% 29.54 in 6.0 mi SSW 13.8 mph - 0.00 in Rain Light Rain
4:02 PM 53.6 °F 51.8 °F 94% 29.52 in 7.0 mi SSW 16.1 mph - 0.00 in Rain Light Rain
4:20 PM 53.6 °F 51.8 °F 94% 29.52 in 7.0 mi SSW 17.3 mph - 0.00 in   Mostly Cloudy
4:53 PM 54.0 °F 50.0 °F 86% 29.54 in 10.0 mi SSW 13.8 mph - 0.00 in   Mostly Cloudy
5:53 PM 54.0 °F 48.9 °F 83% 29.55 in 10.0 mi SW 17.3 mph 25.3 mph N/A   Mostly Cloudy
6:53 PM 53.1 °F 48.9 °F 86% 29.56 in 10.0 mi SSW 13.8 mph - N/A   Mostly Cloudy
7:53 PM 53.1 °F 48.9 °F 86% 29.57 in 10.0 mi SSW 13.8 mph 25.3 mph N/A   Overcast
8:53 PM 52.0 °F 48.9 °F 89% 29.58 in 10.0 mi South 13.8 mph - N/A   Overcast
9:53 PM 52.0 °F 48.9 °F 89% 29.59 in 10.0 mi SSW 12.7 mph - N/A   Overcast
10:53 PM 52.0 °F 48.9 °F 89% 29.59 in 10.0 mi SSW 10.4 mph - N/A   Overcast
10:58 PM 51.8 °F 48.2 °F 88% 29.57 in 10.0 mi SSW 12.7 mph - N/A   Overcast
11:53 PM 52.0 °F 48.0 °F 86% 29.59 in 10.0 mi SSW 13.8 mph - 0.00 in Rain Light Rain